sat.trackr.live / text

‹ back to catalog

STARLINK-3889

NORAD 52331 · 2022-045A

PAYLOAD ACTIVE UNKNOWN

§ Identity

Operator
Country
US
Launch date
2022-04-29
Launch site
AFETR
Launch vehicle
Mass (kg)
RCS (m²)

Purposes: comms

External: N2YO · Heavens-Above · Gunter

§ Orbital elements

Epoch: 2026-05-25T05:18:18.377856Z

Period
95.44 min
Inclination
53.2150°
Eccentricity
0.0001063
Mean motion
15.08840451 rev/d
Perigee alt
539.0 km
Apogee alt
540.5 km
Semi-major
6,917.9 km
B*
3.2281e-5
RAAN
225.5591°
Arg perigee
82.1979°
Mean anomaly
277.9134°
Rev number
22,719

§ Raw data

STARLINK-38891 52331U 22045A   26145.22104604  .00000226  00000+0  32281-4 0  99932 52331  53.2150 225.5591 0001063  82.1979 277.9134 15.08840451227197

JSON: /api/v1/satellites/52331 · /tle

For live sub-satellite position, see the globe view (requires WebGL).

§ Visibility from observer

Set your observer location to see the next 7 days of passes ≥ 10°. The values pass through the URL so the page stays shareable.

No JS? Fill the form by hand. The geolocation button needs JavaScript.